Houston / Dunn Helistop, TX

8:00 AM CDT on April 25, 2018 (GMT -0500)
Houston / Dunn Helistop

Weather History for KMCJ - November, 2013

Change the Weather History Date:

Monday, November 4, 2013

  Actual Average (KHOU) Record (KHOU)
Temperature  
Mean Temperature 65 °F -  
Max Temperature 73 °F 73 °F 89 °F (1988)
Min Temperature 57 °F 55 °F 28 °F (1991)
Growing Degree Days 15 (Base 50)    
Moisture  
Dew Point 59 °F    
Average Humidity 80    
Maximum Humidity 88    
Minimum Humidity 67    
Precipitation  
Precipitation 0.01 in - - ()
Sea Level Pressure  
Sea Level Pressure 30.01 in    
Wind  
Wind Speed 10 mph (East)    
Max Wind Speed 24 mph    
Max Gust Speed 32 mph    
Visibility 10 miles    
Events      
Averages and records for this station are not official NWS values.
T = Trace of Precipitation, MM = Missing Value Source: NWS Daily Summary

Daily Weather History Graph

Daily Weather History Graph

Search for Another Location

Airport or City:

Astronomy

Nov. 04, 2013 Rise Set
Actual Time 6:37 AM CST 5:32 PM CST
Civil Twilight 6:12 AM CST 5:57 PM CST
Nautical Twilight 5:44 AM CST 6:25 PM CST
Astronomical Twilight 5:16 AM CST 6:53 PM CST
Moon 7:44 AM CST (11/4) 6:43 PM CST (11/4)
Length of Visible Light 11h 44m
Length of Day
10h 54m
New Moon, 2% of the Moon is Illuminated
Nov 4
New Moon
Nov 9
First Quarter
Nov 17
Full
Nov 25
Last Quarter
Dec 2
New

Hourly Weather History & Observations

Time (CST) Temp. Dew Point Humidity Pressure Visibility Wind Dir Wind Speed Gust Speed Precip Events Conditions
12:15 AM 59.0 °F 48.2 °F 67% 30.06 in 10.0 mi East 8.1 mph - N/A   Scattered Clouds
12:35 AM 59.0 °F 50.0 °F 72% 30.05 in 10.0 mi East 10.4 mph - N/A   Partly Cloudy
12:55 AM 59.0 °F 50.0 °F 72% 30.04 in 10.0 mi East 9.2 mph - N/A   Partly Cloudy
1:15 AM 57.2 °F 50.0 °F 77% 30.04 in 10.0 mi East 10.4 mph - N/A   Clear
1:35 AM 57.2 °F 50.0 °F 77% 30.04 in 10.0 mi ESE 8.1 mph - N/A   Clear
1:55 AM 57.2 °F 50.0 °F 77% 30.03 in 10.0 mi East 8.1 mph - N/A   Clear
2:15 AM 59.0 °F 50.0 °F 72% 30.02 in 10.0 mi East 10.4 mph - N/A   Clear
2:35 AM 59.0 °F 51.8 °F 77% 30.02 in 10.0 mi East 10.4 mph - N/A   Clear
2:55 AM 59.0 °F 51.8 °F 77% 30.01 in 10.0 mi East 8.1 mph - N/A   Clear
3:15 AM 59.0 °F 53.6 °F 82% 30.02 in 10.0 mi East 8.1 mph - N/A   Clear
3:35 AM 59.0 °F 53.6 °F 82% 30.01 in 10.0 mi NE 3.5 mph - N/A   Scattered Clouds
3:55 AM 59.0 °F 53.6 °F 82% 30.01 in 10.0 mi ENE 6.9 mph - N/A   Scattered Clouds
4:15 AM 59.0 °F 53.6 °F 82% 29.99 in 10.0 mi ENE 4.6 mph - N/A   Mostly Cloudy
4:35 AM 59.0 °F 53.6 °F 82% 30.00 in 10.0 mi ENE 5.8 mph - N/A   Overcast
4:55 AM 59.0 °F 53.6 °F 82% 30.00 in 10.0 mi NE 4.6 mph - N/A   Mostly Cloudy
5:15 AM 59.0 °F 53.6 °F 82% 30.02 in 10.0 mi NNE 4.6 mph - N/A   Overcast
5:35 AM 59.0 °F 53.6 °F 82% 30.02 in 10.0 mi ENE 6.9 mph - N/A   Overcast
5:55 AM 59.0 °F 53.6 °F 82% 30.01 in 10.0 mi ENE 8.1 mph - N/A   Mostly Cloudy
6:15 AM 59.0 °F 53.6 °F 82% 30.00 in 10.0 mi ENE 6.9 mph - N/A   Scattered Clouds
6:35 AM 59.0 °F 53.6 °F 82% 29.99 in 10.0 mi ENE 4.6 mph - N/A   Partly Cloudy
6:55 AM 59.0 °F 53.6 °F 82% 30.01 in 10.0 mi NE 6.9 mph - N/A   Mostly Cloudy
7:15 AM 59.0 °F 53.6 °F 82% 30.03 in 10.0 mi NE 6.9 mph - N/A   Overcast
7:55 AM 60.8 °F 55.4 °F 82% 30.04 in 10.0 mi NE 5.8 mph - N/A   Overcast
8:15 AM 60.8 °F 55.4 °F 82% 30.05 in 10.0 mi NE 6.9 mph - N/A   Overcast
8:35 AM 62.6 °F 55.4 °F 77% 30.06 in 10.0 mi NE 5.8 mph - N/A   Overcast
8:55 AM 62.6 °F 57.2 °F 82% 30.06 in 10.0 mi ENE 8.1 mph - N/A   Mostly Cloudy
9:15 AM 66.2 °F 59.0 °F 78% 30.07 in 10.0 mi ENE 8.1 mph - N/A   Mostly Cloudy
9:35 AM 66.2 °F 59.0 °F 78% 30.07 in 10.0 mi ENE 3.5 mph - N/A   Overcast
9:55 AM 66.2 °F 60.8 °F 83% 30.06 in 10.0 mi ENE 6.9 mph - N/A   Overcast
10:15 AM 68.0 °F 62.6 °F 83% 30.06 in 10.0 mi ENE 9.2 mph - N/A   Overcast
10:35 AM 68.0 °F 62.6 °F 83% 30.06 in 10.0 mi East 6.9 mph - N/A   Overcast
10:55 AM 71.6 °F 62.6 °F 73% 30.05 in 10.0 mi East 11.5 mph 16.1 mph N/A   Overcast
11:15 AM 71.6 °F 62.6 °F 73% 30.05 in 10.0 mi East 11.5 mph 16.1 mph N/A   Mostly Cloudy
11:35 AM 73.4 °F 62.6 °F 69% 30.04 in 10.0 mi ESE 18.4 mph 26.5 mph N/A   Overcast
11:55 AM 73.4 °F 62.6 °F 69% 30.03 in 10.0 mi East 17.3 mph 23.0 mph N/A   Overcast
12:15 PM 71.6 °F 62.6 °F 73% 30.02 in 9.0 mi ESE 8.1 mph 18.4 mph N/A   Overcast
12:35 PM 68.0 °F 64.4 °F 88% 30.01 in 1.8 mi ESE 12.7 mph 18.4 mph 0.01 in   Overcast
12:55 PM 69.8 °F 64.4 °F 83% 30.00 in 10.0 mi East 12.7 mph 23.0 mph 0.01 in   Overcast
1:15 PM 71.6 °F 64.4 °F 78% 29.99 in 10.0 mi East 19.6 mph 28.8 mph N/A   Overcast
1:35 PM 71.6 °F 64.4 °F 78% 29.98 in 10.0 mi ESE 24.2 mph 28.8 mph N/A   Overcast
1:55 PM 71.6 °F 64.4 °F 78% 29.97 in 10.0 mi ESE 18.4 mph 29.9 mph N/A   Overcast
2:15 PM 71.6 °F 62.6 °F 73% 29.98 in 10.0 mi ESE 12.7 mph 26.5 mph N/A   Overcast
2:55 PM 71.6 °F 62.6 °F 73% 29.97 in 10.0 mi ESE 19.6 mph 32.2 mph N/A   Overcast
3:15 PM 71.6 °F 64.4 °F 78% 29.97 in 7.0 mi ESE 18.4 mph 29.9 mph N/A   Overcast
3:35 PM 69.8 °F 64.4 °F 83% 29.97 in 10.0 mi ESE 16.1 mph 28.8 mph N/A   Overcast
3:55 PM 68.0 °F 64.4 °F 88% 29.98 in 9.0 mi ESE 15.0 mph 21.9 mph N/A   Overcast
4:15 PM 68.0 °F 64.4 °F 88% 29.98 in 6.0 mi ESE 16.1 mph 24.2 mph N/A   Overcast
4:35 PM 68.0 °F 64.4 °F 88% 29.99 in 7.0 mi ESE 16.1 mph 25.3 mph N/A   Overcast
4:55 PM 68.0 °F 64.4 °F 88% 29.99 in 10.0 mi ESE 15.0 mph 25.3 mph N/A   Overcast
5:15 PM 68.0 °F 64.4 °F 88% 29.99 in 10.0 mi East 13.8 mph 23.0 mph N/A   Overcast
5:35 PM 68.0 °F 64.4 °F 88% 29.99 in 10.0 mi ESE 13.8 mph 19.6 mph N/A   Overcast
5:55 PM 68.0 °F 64.4 °F 88% 29.99 in 10.0 mi ESE 13.8 mph 17.3 mph N/A   Overcast
6:15 PM 68.0 °F 64.4 °F 88% 29.99 in 9.0 mi ESE 12.7 mph 20.7 mph N/A   Overcast
6:35 PM 68.0 °F 64.4 °F 88% 30.00 in 8.0 mi ESE 11.5 mph 19.6 mph N/A   Overcast
6:55 PM 68.0 °F 64.4 °F 88% 29.99 in 10.0 mi East 12.7 mph 21.9 mph N/A   Overcast
7:15 PM 69.8 °F 62.6 °F 78% 29.99 in 9.0 mi ESE 13.8 mph 20.7 mph N/A   Overcast
7:35 PM 69.8 °F 64.4 °F 83% 30.01 in 8.0 mi ESE 9.2 mph - N/A   Overcast
7:55 PM 69.8 °F 64.4 °F 83% 30.01 in 10.0 mi ESE 15.0 mph 19.6 mph N/A   Overcast
8:15 PM 68.0 °F 64.4 °F 88% 30.01 in 3.0 mi ESE 10.4 mph 18.4 mph N/A   Overcast
8:35 PM 68.0 °F 64.4 °F 88% 30.02 in 7.0 mi East 10.4 mph 18.4 mph N/A   Mostly Cloudy
8:55 PM 68.0 °F 64.4 °F 88% 30.01 in 10.0 mi East 9.2 mph - N/A   Overcast
9:15 PM 68.0 °F 64.4 °F 88% 30.01 in 10.0 mi ESE 8.1 mph - N/A   Overcast
9:35 PM 68.0 °F 64.4 °F 88% 30.00 in 10.0 mi ESE 10.4 mph - N/A   Mostly Cloudy
9:55 PM 69.8 °F 64.4 °F 83% 30.00 in 10.0 mi ESE 12.7 mph 18.4 mph N/A   Partly Cloudy
10:15 PM 71.6 °F 62.6 °F 73% 30.01 in 10.0 mi ESE 11.5 mph 19.6 mph N/A   Mostly Cloudy
10:35 PM 71.6 °F 62.6 °F 73% 30.01 in 10.0 mi ESE 12.7 mph - N/A   Mostly Cloudy
11:15 PM 71.6 °F 62.6 °F 73% 30.02 in 10.0 mi ESE 11.5 mph 17.3 mph N/A   Scattered Clouds
11:35 PM 71.6 °F 62.6 °F 73% 30.01 in 10.0 mi ESE 10.4 mph - N/A   Mostly Cloudy
11:55 PM 71.6 °F 62.6 °F 73% 30.01 in 10.0 mi ESE 8.1 mph - N/A   Mostly Cloudy